"startDT [UTC]","vpos","CH4 [ppm]","stdev(CH4) [ppm]","CO2 [ppm]","stdev(CO2) [ppm]","H2O_reported [%]","stdev(H2O_reported)","CavityPressure [torr]","CavityTemp [C]","OutletValve","CH4_dry [ppm]","CO2_dry [ppm]","DasTemp [C]","EtalonTemp [C]","WarmBoxTemp [C]","MPVPosition","T_ECpre [C]","T_EC1 [C]","T_EC2 [C]","p_inlet [hPa]","p_in [hPa]","p_out [hPa]","T_inlet [C]","RH_inlet [%]","dwpt_inlet [C]","T_vent [C]","RH_vent [%]","dwpt_vent [C]","flow_vent [l min-1]","flow_inlet [l min-1]","dwpt_sample [C]","T_room [C]"
2016-06-08 00:00:00,0.0,1.90358,0.00052,402.519,0.064,0.9253,0.0144,140.001,45.000,31869.22567,1.92150,407.137,37.432,45.069,45.000,0.00,0.09,-272.77,-272.84,-19,525,-948,26.8,19.8,1.8,26.5,20.4,2.0,5.73,1.67,0.9,30.1
2016-06-08 00:01:00,0.0,1.90321,0.00051,402.488,0.052,0.9057,0.0143,139.999,45.000,31867.98427,1.92067,407.005,37.431,45.069,45.000,0.00,0.09,-272.77,-272.83,-17,525,-948,26.8,19.4,1.5,26.5,20.3,1.9,5.73,1.92,0.9,30.0
2016-06-08 00:02:00,0.0,1.90365,0.00081,402.487,0.039,0.9117,0.0222,140.002,45.000,31869.64446,1.92114,407.023,37.437,45.069,45.000,0.00,0.09,-272.78,-272.85,-19,525,-948,26.8,19.6,1.7,26.5,20.1,1.8,5.73,1.79,0.9,30.0
2016-06-08 00:03:00,0.0,1.90421,0.00048,402.509,0.031,0.9260,0.0114,140.000,45.000,31872.09062,1.92214,407.131,37.438,45.069,45.000,0.00,0.09,-272.78,-272.84,-18,525,-948,26.8,19.8,1.8,26.5,20.6,2.1,5.73,1.78,0.9,30.0
2016-06-08 00:04:00,0.0,1.90343,0.00053,402.553,0.047,0.9058,0.0085,140.001,45.000,31871.39654,1.92091,407.068,37.446,45.069,45.000,0.00,0.09,-272.77,-272.84,-17,525,-948,26.9,19.4,1.6,26.5,20.2,1.9,5.73,1.93,0.9,30.0
2016-06-08 00:05:00,0.0,1.90311,0.00040,402.515,0.035,0.9042,0.0089,139.999,45.000,31873.43709,1.92052,407.022,37.450,45.069,45.000,0.00,0.09,-272.77,-272.84,-19,525,-948,26.8,19.3,1.5,26.5,20.1,1.8,5.73,1.67,1.0,30.0
2016-06-08 00:06:00,0.0,1.90413,0.00065,402.472,0.050,0.9233,0.0148,140.000,45.000,31874.95294,1.92195,407.071,37.464,45.069,45.000,0.00,0.09,-272.78,-272.84,-17,525,-948,26.9,19.8,1.9,26.6,20.3,2.0,5.73,2.01,0.9,29.9
2016-06-08 00:07:00,0.0,1.90464,0.00082,402.452,0.053,0.9319,0.0177,140.001,45.000,31876.21385,1.92260,407.098,37.489,45.069,45.000,0.00,0.09,-272.77,-272.83,-18,525,-948,26.9,19.9,2.0,26.6,20.6,2.2,5.73,1.64,1.0,29.9
2016-06-08 00:08:00,0.0,1.90405,0.00043,402.528,0.061,0.8912,0.0119,140.001,45.000,31873.71469,1.92125,406.968,37.500,45.069,45.000,0.00,0.09,-272.78,-272.83,-19,525,-948,26.9,19.0,1.3,26.6,20.0,1.7,5.73,1.98,1.0,30.0
2016-06-08 00:09:00,0.0,1.90378,0.00036,402.533,0.044,0.8856,0.0124,140.000,45.000,31874.47017,1.92090,406.948,37.501,45.069,45.000,0.00,0.09,-272.78,-272.84,-17,525,-948,26.9,18.8,1.2,26.6,19.7,1.5,5.73,1.71,1.0,29.9
2016-06-08 00:10:00,0.0,1.90315,0.00051,402.534,0.037,0.8653,0.0064,139.999,45.000,31874.36906,1.91979,406.841,37.525,45.069,45.000,0.00,0.09,-272.78,-272.83,-19,525,-948,26.9,18.4,0.9,26.6,19.2,1.2,5.73,1.88,1.0,30.2
2016-06-08 00:11:00,0.0,1.90372,0.00061,402.458,0.036,0.8817,0.0092,139.998,45.000,31875.92107,1.92072,406.845,37.543,45.069,45.000,0.00,0.09,-272.77,-272.84,-18,525,-948,26.9,18.8,1.2,26.6,19.3,1.3,5.73,1.83,1.0,30.1
2016-06-08 00:12:00,0.0,1.90314,0.00055,402.415,0.052,0.8820,0.0099,140.000,45.000,31875.56447,1.92015,406.808,37.538,45.069,45.000,0.00,0.09,-272.78,-272.84,-18,525,-948,26.9,18.7,1.1,26.6,19.5,1.5,5.73,1.75,1.0,30.2
2016-06-08 00:13:00,0.0,1.90315,0.00050,402.387,0.051,0.8927,0.0154,140.001,45.000,31876.61385,1.92037,406.829,37.554,45.069,45.000,0.00,0.09,-272.78,-272.84,-19,525,-948,26.9,19.1,1.4,26.6,19.6,1.5,5.73,1.95,1.0,30.2
2016-06-08 00:14:00,0.0,1.90279,0.00046,402.226,0.055,0.9140,0.0172,140.001,45.000,31876.22328,1.92037,406.782,37.547,45.069,45.000,0.00,0.09,-272.76,-272.83,-17,525,-948,26.9,19.4,1.6,26.6,20.1,1.9,5.73,1.66,1.0,30.2
2016-06-08 00:15:00,0.0,1.90300,0.00044,402.359,0.069,0.9014,0.0205,139.999,45.000,31876.87340,1.92037,406.844,37.563,45.069,45.000,0.00,0.09,-272.78,-272.84,-19,525,-948,26.9,19.2,1.5,26.6,19.9,1.7,5.73,2.00,1.0,30.1
2016-06-08 00:16:00,0.0,1.90294,0.00038,402.292,0.043,0.8887,0.0112,140.000,45.000,31876.52377,1.92006,406.720,37.566,45.069,45.000,0.00,0.09,-272.77,-272.85,-18,525,-948,26.9,18.9,1.3,26.6,19.8,1.7,5.73,1.65,1.0,30.1
2016-06-08 00:17:00,0.0,1.90275,0.00039,402.277,0.060,0.8989,0.0104,140.002,45.000,31879.76704,1.92007,406.750,37.582,45.069,45.000,0.00,0.09,-272.78,-272.84,-17,525,-948,27.0,19.1,1.4,26.7,19.7,1.6,5.73,1.98,1.0,30.1
2016-06-08 00:18:00,0.0,1.90287,0.00063,402.230,0.056,0.9080,0.0136,140.000,45.000,31878.05249,1.92036,406.751,37.582,45.069,45.000,0.00,0.09,-272.77,-272.84,-19,525,-948,27.0,19.3,1.6,26.6,19.9,1.8,5.73,1.71,1.0,30.2
2016-06-08 00:19:00,0.0,1.90221,0.00054,402.194,0.071,0.8969,0.0147,140.000,45.000,31880.19786,1.91955,406.665,37.608,45.069,45.000,0.00,0.09,-272.78,-272.84,-17,525,-948,27.0,19.0,1.4,26.6,19.9,1.7,5.73,1.89,1.0,30.2
2016-06-08 00:20:00,0.0,1.90227,0.00054,402.199,0.057,0.8821,0.0153,140.001,45.000,31879.93946,1.91926,406.590,37.612,45.069,45.000,0.00,0.09,-272.77,-272.84,-18,525,-948,27.0,18.7,1.1,26.7,19.5,1.5,5.73,1.81,1.0,30.2
2016-06-08 00:21:00,0.0,1.90233,0.00039,402.193,0.053,0.8863,0.0198,140.003,45.000,31880.81381,1.91936,406.599,37.584,45.069,45.000,0.00,0.09,-272.77,-272.83,-19,525,-948,27.0,18.8,1.2,26.7,19.4,1.4,5.73,1.78,1.0,30.4
2016-06-08 00:22:00,0.0,1.90245,0.00052,402.216,0.054,0.8856,0.0161,140.001,45.000,31878.56718,1.91953,406.625,37.581,45.069,45.000,0.00,0.09,-272.78,-272.84,-17,525,-948,27.0,18.7,1.2,26.7,19.5,1.5,5.73,1.92,1.0,30.3
2016-06-08 00:23:00,0.0,1.90243,0.00039,402.222,0.057,0.8835,0.0192,140.003,45.000,31880.54259,1.91943,406.616,37.607,45.069,45.000,0.00,0.09,-272.78,-272.83,-19,525,-949,27.0,18.7,1.2,26.7,19.4,1.5,5.73,1.68,1.1,30.4
2016-06-08 00:24:00,0.0,1.90235,0.00031,402.206,0.044,0.8909,0.0145,140.000,45.000,31881.17399,1.91951,406.637,37.603,45.070,45.000,0.00,0.09,-272.78,-272.83,-18,526,-949,27.0,18.9,1.4,26.7,19.6,1.6,5.73,1.99,1.1,30.4
2016-06-08 00:25:00,0.0,1.90222,0.00050,402.184,0.045,0.9007,0.0176,140.001,45.000,31880.92202,1.91954,406.664,37.612,45.069,45.000,0.00,0.09,-272.77,-272.84,-18,525,-949,27.0,19.1,1.5,26.7,19.7,1.6,5.73,1.64,1.1,30.3
2016-06-08 00:26:00,0.0,1.90223,0.00050,402.163,0.037,0.9013,0.0166,140.001,45.000,31879.99614,1.91963,406.657,37.625,45.069,45.000,0.00,0.09,-272.78,-272.84,-19,525,-949,27.0,19.0,1.4,26.7,19.9,1.8,5.73,2.00,1.1,30.4
2016-06-08 00:27:00,0.0,1.90235,0.00041,402.183,0.039,0.8929,0.0144,140.000,45.000,31881.72342,1.91955,406.622,37.628,45.069,45.000,0.00,0.09,-272.77,-272.84,-17,525,-949,27.0,19.0,1.4,26.7,19.5,1.6,5.73,1.66,1.1,30.3
2016-06-08 00:28:00,0.0,1.90167,0.00047,402.179,0.041,0.8851,0.0146,140.002,45.000,31883.71865,1.91872,406.585,37.642,45.069,45.000,0.00,0.09,-272.77,-272.83,-19,525,-949,27.0,18.6,1.2,26.7,19.5,1.6,5.73,1.95,1.1,30.2
2016-06-08 00:29:00,0.0,1.90169,0.00039,402.166,0.030,0.8756,0.0066,140.002,45.000,31884.55827,1.91856,406.524,37.677,45.069,45.000,0.00,0.09,-272.77,-272.84,-18,526,-949,27.0,18.4,1.0,26.7,19.2,1.4,5.73,1.74,1.1,30.1
2016-06-08 00:30:00,0.0,1.90161,0.00024,402.192,0.033,0.8850,0.0070,140.000,45.000,31883.84880,1.91863,406.591,37.687,45.069,45.000,0.00,0.09,-272.78,-272.84,-18,525,-949,27.1,18.7,1.2,26.7,19.3,1.4,5.73,1.86,1.1,30.1
2016-06-08 00:31:00,0.0,1.90158,0.00034,402.115,0.039,0.9029,0.0031,140.003,45.000,31888.39346,1.91897,406.610,37.689,45.069,45.000,0.00,0.09,-272.77,-272.84,-19,526,-949,27.0,19.1,1.5,26.7,19.7,1.7,5.73,1.83,1.1,30.2
2016-06-08 00:32:00,0.0,1.90163,0.00048,402.100,0.026,0.9032,0.0051,140.000,45.000,31887.30539,1.91900,406.595,37.701,45.069,45.000,0.00,0.09,-272.78,-272.84,-17,525,-948,27.1,19.1,1.5,26.7,19.8,1.8,5.73,1.76,1.1,30.2
2016-06-08 00:33:00,0.0,1.90169,0.00042,402.125,0.027,0.8872,0.0058,140.001,45.000,31885.49412,1.91880,406.540,37.690,45.069,45.000,0.00,0.09,-272.78,-272.84,-19,525,-949,27.1,18.7,1.3,26.8,19.5,1.6,5.73,1.92,1.1,30.2
2016-06-08 00:34:00,0.0,1.90164,0.00045,402.101,0.035,0.8988,0.0079,140.000,45.000,31887.04897,1.91893,406.573,37.695,45.069,45.000,0.00,0.09,-272.77,-272.84,-18,526,-949,27.1,18.9,1.4,26.8,19.6,1.7,5.73,1.68,1.1,30.2
2016-06-08 00:35:00,0.0,1.90155,0.00034,402.066,0.032,0.9032,0.0097,139.999,45.000,31887.91165,1.91893,406.559,37.716,45.069,45.000,0.00,0.09,-272.78,-272.83,-18,525,-949,27.1,19.0,1.5,26.8,19.7,1.7,5.73,1.98,1.1,30.4
2016-06-08 00:36:00,0.0,1.90154,0.00038,402.071,0.031,0.8947,0.0114,139.999,45.000,31889.43159,1.91880,406.524,37.737,45.069,45.000,0.00,0.09,-272.78,-272.84,-19,526,-949,27.1,18.8,1.3,26.8,19.6,1.7,5.73,1.64,1.2,30.4
2016-06-08 00:37:00,0.0,1.90133,0.00052,402.074,0.040,0.8997,0.0109,140.000,45.000,31891.30191,1.91863,406.551,37.749,45.069,45.000,0.00,0.09,-272.78,-272.84,-17,525,-949,27.1,19.0,1.5,26.8,19.6,1.7,5.73,2.00,1.1,30.4
2016-06-08 00:38:00,0.0,1.90173,0.00050,402.107,0.040,0.9006,0.0115,139.999,45.000,31889.91756,1.91905,406.587,37.759,45.069,45.000,0.00,0.09,-272.77,-272.83,-19,525,-949,27.1,19.0,1.5,26.8,19.6,1.7,5.73,1.65,1.2,30.4
2016-06-08 00:39:00,0.0,1.90195,0.00065,402.103,0.033,0.9408,0.0128,140.000,45.000,31889.49833,1.92008,406.790,37.803,45.069,45.000,0.00,0.09,-272.78,-272.84,-18,526,-949,27.1,19.9,2.1,26.8,20.4,2.2,5.73,1.97,1.2,30.4
2016-06-08 00:40:00,0.0,1.90201,0.00053,402.122,0.038,0.9192,0.0078,140.000,45.000,31890.87125,1.91978,406.704,37.814,45.069,45.000,0.00,0.09,-272.77,-272.84,-18,525,-949,27.1,19.3,1.8,26.8,20.2,2.1,5.73,1.69,1.2,30.4
2016-06-08 00:41:00,0.0,1.90151,0.00046,402.065,0.048,0.9271,0.0105,140.000,45.000,31890.90147,1.91936,406.679,37.817,45.069,45.000,0.00,0.09,-272.77,-272.83,-19,526,-949,27.2,19.5,1.9,26.8,20.2,2.0,5.73,1.91,1.2,30.3
2016-06-08 00:42:00,0.0,1.90074,0.00043,402.038,0.067,0.9159,0.0136,139.998,45.000,31890.86782,1.91840,406.603,37.825,45.069,45.000,0.00,0.09,-272.77,-272.84,-17,525,-949,27.2,19.2,1.7,26.8,20.1,2.0,5.73,1.76,1.2,30.4
2016-06-08 00:43:00,0.0,1.90090,0.00031,402.078,0.025,0.9012,0.0055,140.001,45.000,31890.96709,1.91826,406.563,37.814,45.069,45.000,0.00,0.09,-272.78,-272.84,-19,526,-949,27.2,18.9,1.4,26.8,19.7,1.8,5.73,1.83,1.2,30.4
2016-06-08 00:44:00,0.0,1.90093,0.00045,402.093,0.034,0.9000,0.0106,140.000,45.000,31892.72805,1.91826,406.570,37.799,45.069,45.000,0.00,0.09,-272.77,-272.84,-18,526,-949,27.2,18.9,1.4,26.8,19.6,1.7,5.73,1.84,1.2,30.4
2016-06-08 00:45:00,0.0,1.90105,0.00056,402.102,0.044,0.8953,0.0177,139.999,45.000,31892.44365,1.91829,406.555,37.771,45.069,45.000,0.00,0.09,-272.77,-272.84,-18,526,-949,27.2,18.8,1.4,26.8,19.4,1.6,5.73,1.76,1.2,30.3
2016-06-08 00:46:00,0.0,1.90079,0.00040,402.042,0.047,0.9068,0.0147,139.999,45.000,31891.91988,1.91825,406.559,37.769,45.070,45.001,0.00,0.09,-272.78,-272.85,-19,526,-949,27.2,19.0,1.5,26.8,19.8,1.9,5.73,1.92,1.2,30.4
2016-06-08 00:47:00,0.0,1.90035,0.00053,402.034,0.046,0.9103,0.0112,140.000,45.000,31892.83110,1.91786,406.565,37.799,45.070,45.001,0.00,0.09,-272.78,-272.84,-18,526,-949,27.2,19.0,1.6,26.8,19.7,1.8,5.73,1.69,1.2,30.5
2016-06-08 00:48:00,0.0,1.90142,0.00045,402.125,0.029,0.8841,0.0056,140.001,45.000,31890.79419,1.91846,406.523,37.811,45.070,45.001,0.00,0.09,-272.77,-272.83,-19,526,-949,27.2,18.5,1.2,26.9,19.4,1.6,5.73,1.97,1.2,30.5
2016-06-08 00:49:00,0.0,1.90115,0.00041,402.055,0.063,0.9055,0.0185,139.998,45.000,31890.66085,1.91856,406.560,37.811,45.069,45.000,0.00,0.09,-272.78,-272.84,-18,526,-949,27.2,19.0,1.6,26.9,19.5,1.7,5.73,1.65,1.2,30.4
2016-06-08 00:50:00,0.0,1.90085,0.00046,402.025,0.032,0.9071,0.0101,140.003,45.000,31892.76625,1.91831,406.542,37.814,45.069,45.000,0.00,0.09,-272.78,-272.84,-19,526,-949,27.2,18.9,1.5,26.9,19.8,1.9,5.73,1.99,1.2,30.4
2016-06-08 00:51:00,0.0,1.90135,0.00040,402.072,0.035,0.8991,0.0144,140.000,45.000,31891.84687,1.91864,406.543,37.814,45.069,45.000,0.00,0.09,-272.77,-272.83,-19,526,-949,27.2,18.9,1.5,26.9,19.5,1.7,5.73,1.64,1.3,30.5
2016-06-08 00:52:00,0.0,1.90085,0.00056,401.989,0.058,0.9339,0.0160,139.999,45.000,31893.78655,1.91887,406.643,37.825,45.069,45.000,0.00,0.09,-272.78,-272.84,-18,526,-949,27.2,19.5,2.0,26.9,20.2,2.2,5.73,1.99,1.3,30.4
2016-06-08 00:53:00,0.0,1.90132,0.00038,402.085,0.042,0.8982,0.0087,140.002,45.000,31894.23785,1.91860,406.553,37.858,45.069,45.000,0.00,0.09,-272.77,-272.85,-19,526,-949,27.2,18.8,1.5,26.9,19.6,1.8,5.73,1.65,1.3,30.4
2016-06-08 00:54:00,0.0,1.90091,0.00037,402.048,0.047,0.9156,0.0119,140.002,45.000,31896.22281,1.91855,406.607,37.864,45.069,45.000,0.00,0.09,-272.77,-272.83,-18,526,-949,27.2,19.1,1.7,26.9,19.8,1.9,5.73,1.97,1.3,30.4
2016-06-08 00:55:00,0.0,1.90128,0.00031,402.068,0.045,0.8955,0.0179,140.004,45.000,31896.06838,1.91854,406.525,37.875,45.069,45.000,0.00,0.09,-272.76,-272.84,-19,526,-949,27.3,18.7,1.4,26.9,19.5,1.7,5.73,1.69,1.3,30.5
2016-06-08 00:56:00,0.0,1.90114,0.00053,402.021,0.034,0.9136,0.0185,140.001,45.000,31897.67802,1.91873,406.574,37.874,45.069,45.000,0.00,0.34,-270.53,-271.29,-19,526,-949,27.3,19.0,1.6,26.9,19.7,1.9,5.42,2.06,-5.3,30.7
2016-06-08 00:57:00,0.0,1.90102,0.00038,402.020,0.044,0.9005,0.0089,140.000,45.000,31896.82335,1.91835,406.497,37.873,45.069,45.000,0.00,0.09,-272.77,-272.84,-18,526,-949,27.3,18.8,1.5,26.9,19.4,1.7,5.73,1.75,1.3,30.7
2016-06-08 00:58:00,0.0,1.90122,0.00035,402.028,0.035,0.9047,0.0041,140.001,45.000,31898.25323,1.91864,406.531,37.875,45.069,45.000,0.00,0.09,-272.77,-272.83,-19,526,-949,27.3,18.8,1.5,26.9,19.6,1.8,5.73,1.85,1.3,30.7
2016-06-08 00:59:00,0.0,1.90131,0.00040,402.031,0.045,0.9048,0.0100,140.000,45.000,31898.58319,1.91871,406.535,37.872,45.069,45.000,0.00,0.09,-272.77,-272.85,-17,526,-949,27.3,18.8,1.5,27.0,19.6,1.8,5.73,1.81,1.3,30.6
2016-06-08 01:00:00,0.0,1.90108,0.00055,402.029,0.050,0.9115,0.0120,140.001,45.000,31898.57488,1.91869,406.564,37.871,45.069,45.000,0.00,0.09,-272.78,-272.84,-19,526,-949,27.3,19.0,1.7,27.0,19.6,1.8,5.73,1.80,1.3,30.7
2016-06-08 01:01:00,0.0,1.90079,0.00037,402.019,0.040,0.9115,0.0100,139.999,45.000,31900.85888,1.91834,406.557,37.875,45.069,45.000,0.00,0.09,-272.77,-272.84,-18,526,-949,27.3,18.9,1.6,27.0,19.7,1.9,5.73,1.87,1.3,30.7
2016-06-08 01:02:00,0.0,1.90111,0.00041,402.032,0.035,0.9130,0.0101,140.000,45.000,31899.98391,1.91867,406.574,37.882,45.069,45.000,0.00,0.09,-272.78,-272.83,-18,526,-949,27.3,19.0,1.7,27.0,19.7,1.9,5.73,1.74,1.3,30.5
2016-06-08 01:03:00,0.0,1.90076,0.00035,401.971,0.047,0.9178,0.0101,140.003,45.000,31900.31490,1.91845,406.542,37.902,45.069,45.000,0.00,0.09,-272.78,-272.84,-19,526,-949,27.4,19.1,1.8,27.0,19.9,2.0,5.73,1.92,1.3,30.4
2016-06-08 01:04:00,0.0,1.90129,0.00041,402.056,0.059,0.8883,0.0135,140.000,45.000,31898.57323,1.91839,406.476,37.927,45.069,45.000,0.00,0.09,-272.77,-272.84,-18,526,-949,27.4,18.4,1.2,27.0,19.3,1.6,5.73,1.69,1.4,30.6
2016-06-08 01:05:00,0.0,1.90168,0.00068,402.075,0.068,0.8766,0.0186,140.000,45.000,31900.48244,1.91852,406.433,37.938,45.069,45.000,0.00,0.09,-272.77,-272.83,-19,526,-949,27.4,18.2,1.1,27.0,19.0,1.4,5.73,1.96,1.4,30.7
2016-06-08 01:06:00,0.0,1.90187,0.00050,402.116,0.058,0.8963,0.0080,140.002,45.000,31900.40440,1.91915,406.577,37.943,45.069,45.000,0.00,0.09,-272.78,-272.84,-18,526,-949,27.4,18.6,1.4,27.0,19.1,1.5,5.73,1.66,1.3,30.7
2016-06-08 01:07:00,0.0,1.90190,0.00043,402.094,0.043,0.8955,0.0099,139.999,45.000,31900.51721,1.91914,406.553,37.979,45.069,45.000,0.00,0.09,-272.78,-272.84,-19,526,-949,27.4,18.5,1.3,27.0,19.4,1.7,5.73,1.98,1.3,30.7
2016-06-08 01:08:00,0.0,1.90181,0.00046,402.075,0.045,0.8742,0.0164,140.002,45.000,31898.64473,1.91864,406.422,37.979,45.069,45.000,0.00,0.09,-272.76,-272.84,-19,526,-949,27.4,18.1,1.0,27.1,18.9,1.4,5.73,1.64,1.4,30.8
2016-06-08 01:09:00,0.0,1.90225,0.00037,402.116,0.037,0.9279,0.0259,140.001,45.000,31900.07254,1.92006,406.727,37.973,45.069,45.000,0.00,0.09,-272.77,-272.84,-18,526,-949,27.4,19.4,2.0,27.0,19.5,1.8,5.73,2.00,1.4,30.5
2016-06-08 01:10:00,0.0,1.90265,0.00038,402.138,0.045,0.9367,0.0129,140.000,45.000,31902.26176,1.92076,406.807,37.962,45.069,45.000,0.00,0.09,-272.77,-272.84,-20,526,-949,27.4,19.4,2.0,27.1,20.2,2.3,5.73,1.64,1.4,30.5
2016-06-08 01:11:00,0.0,1.90176,0.00045,402.115,0.073,0.8957,0.0226,140.002,45.000,31904.81454,1.91904,406.578,37.961,45.069,45.000,0.00,0.09,-272.77,-272.83,-18,526,-949,27.4,18.5,1.4,27.1,19.6,1.8,5.73,2.00,1.4,30.6
2016-06-08 01:12:00,0.0,1.90194,0.00047,402.113,0.056,0.8926,0.0147,140.000,45.000,31903.88707,1.91916,406.556,37.993,45.069,45.000,0.00,0.09,-272.77,-272.84,-19,526,-949,27.4,18.4,1.3,27.0,19.2,1.6,5.73,1.64,1.4,30.7
2016-06-08 01:13:00,0.0,1.90142,0.00050,402.102,0.043,0.8909,0.0076,140.003,45.000,31906.07951,1.91858,406.532,38.002,45.069,45.000,0.00,0.09,-272.79,-272.84,-18,527,-949,27.4,18.4,1.3,27.1,19.1,1.5,5.73,1.99,1.4,30.7
2016-06-08 01:14:00,0.0,1.90107,0.00041,402.063,0.040,0.9201,0.0080,140.002,45.000,31906.35738,1.91880,406.646,38.011,45.069,45.000,0.00,0.09,-272.77,-272.84,-19,526,-949,27.4,19.0,1.8,27.1,19.6,1.9,5.73,1.65,1.4,30.7
2016-06-08 01:15:00,0.0,1.90086,0.00077,402.018,0.067,0.9067,0.0160,140.006,45.000,31907.32180,1.91830,406.533,38.021,45.069,45.000,0.00,0.09,-272.77,-272.83,-19,527,-949,27.4,18.7,1.5,27.1,19.6,1.9,5.73,1.97,1.4,30.7
2016-06-08 01:16:00,0.0,1.90137,0.00048,402.102,0.041,0.8831,0.0057,140.000,45.000,31906.19906,1.91840,406.494,38.057,45.069,45.000,0.00,0.09,-272.77,-272.84,-18,526,-949,27.4,18.2,1.1,27.1,19.0,1.5,5.73,1.67,1.4,30.7
2016-06-08 01:17:00,0.0,1.90044,0.00073,402.043,0.080,0.9041,0.0255,140.002,45.000,31908.84740,1.91785,406.542,38.055,45.069,45.000,0.00,0.09,-272.78,-272.84,-20,526,-949,27.4,18.7,1.5,27.1,19.2,1.6,5.73,1.95,1.5,30.7
2016-06-08 01:18:00,0.0,1.90040,0.00030,402.008,0.047,0.8895,0.0090,140.001,45.000,31908.29750,1.91752,406.433,38.050,45.069,45.000,0.00,0.09,-272.77,-272.84,-18,527,-949,27.4,18.3,1.2,27.1,19.2,1.6,5.73,1.70,1.5,30.8
2016-06-08 01:19:00,0.0,1.90072,0.00034,402.041,0.036,0.8947,0.0082,140.001,45.000,31909.95420,1.91794,406.490,38.055,45.069,45.000,0.00,0.09,-272.78,-272.83,-19,526,-949,27.5,18.4,1.3,27.1,19.1,1.5,5.73,1.93,1.5,30.8
2016-06-08 01:20:00,0.0,1.90104,0.00073,402.045,0.055,0.8925,0.0197,139.999,45.000,31908.71604,1.91819,406.486,38.057,45.069,45.000,0.00,0.09,-272.77,-272.84,-18,527,-949,27.5,18.4,1.3,27.1,19.2,1.6,5.73,1.72,1.4,30.7
2016-06-08 01:21:00,0.0,1.90133,0.00030,402.084,0.028,0.8913,0.0152,140.002,45.000,31909.15206,1.91848,406.520,38.061,45.069,45.000,0.00,0.09,-272.77,-272.84,-18,526,-949,27.5,18.3,1.2,27.1,19.0,1.5,5.73,1.90,1.5,30.7
2016-06-08 01:22:00,0.0,1.90158,0.00046,402.115,0.046,0.8737,0.0075,139.997,45.000,31906.11084,1.91840,406.457,38.062,45.069,45.000,0.00,0.09,-272.76,-272.84,-19,527,-949,27.5,18.0,1.0,27.2,18.7,1.3,5.73,1.74,1.5,30.8
2016-06-08 01:23:00,0.0,1.90094,0.00057,402.086,0.026,0.8813,0.0117,140.000,45.000,31908.46620,1.91791,406.472,38.062,45.069,45.000,0.00,0.09,-272.78,-272.84,-18,527,-949,27.5,18.1,1.1,27.2,18.8,1.4,5.73,1.87,1.5,30.8
2016-06-08 01:24:00,0.0,1.90083,0.00041,402.049,0.042,0.8806,0.0099,139.999,45.000,31910.31818,1.91778,406.427,38.063,45.069,45.000,0.00,0.09,-272.77,-272.85,-20,527,-949,27.5,18.0,1.1,27.2,18.7,1.4,5.73,1.77,1.5,30.8
2016-06-08 01:25:00,0.0,1.90080,0.00047,402.069,0.040,0.8849,0.0093,140.001,45.000,31913.02515,1.91779,406.468,38.080,45.069,45.000,0.00,0.09,-272.78,-272.83,-18,527,-949,27.5,18.2,1.2,27.2,18.8,1.4,5.73,1.85,1.5,30.8
2016-06-08 01:26:00,0.0,1.90046,0.00038,401.990,0.054,0.9065,0.0123,140.002,45.000,31912.62588,1.91791,406.501,38.116,45.069,45.000,0.00,0.09,-272.77,-272.84,-19,527,-949,27.5,18.7,1.6,27.2,19.2,1.7,5.73,1.79,1.5,30.8
2016-06-08 01:27:00,0.0,1.90049,0.00060,402.018,0.057,0.9059,0.0118,140.000,45.000,31912.93785,1.91790,406.527,38.123,45.069,45.000,0.00,0.09,-272.78,-272.84,-18,527,-949,27.5,18.5,1.5,27.2,19.3,1.8,5.73,1.83,1.5,30.8
2016-06-08 01:28:00,0.0,1.90099,0.00022,402.010,0.041,0.8877,0.0090,140.001,45.000,31911.97724,1.91812,406.427,38.123,45.069,45.000,0.00,0.09,-272.77,-272.84,-19,526,-949,27.5,18.2,1.2,27.2,19.0,1.5,5.73,1.81,1.6,30.7
2016-06-08 01:29:00,0.0,1.90073,0.00053,402.005,0.044,0.8950,0.0152,139.999,45.000,31912.81339,1.91795,406.454,38.125,45.069,45.000,0.00,0.09,-272.77,-272.83,-19,527,-949,27.6,18.3,1.4,27.2,18.9,1.5,5.73,1.81,1.5,30.6
2016-06-08 01:30:00,0.0,1.90177,0.00084,402.045,0.047,0.8970,0.0214,140.000,45.000,31914.85076,1.91899,406.511,38.151,45.069,45.000,0.00,0.09,-272.78,-272.84,-18,527,-949,27.6,18.4,1.4,27.2,19.2,1.8,5.73,1.83,1.6,30.6
2016-06-08 01:31:00,0.0,1.90218,0.00068,402.107,0.065,0.8897,0.0217,140.000,45.000,31915.84772,1.91927,406.524,38.188,45.069,45.000,0.00,0.09,-272.77,-272.83,-20,527,-949,27.6,18.3,1.3,27.2,18.8,1.4,5.73,1.79,1.6,30.7
2016-06-08 01:32:00,0.0,1.90325,0.00061,402.126,0.059,0.9317,0.0140,140.001,45.000,31915.51892,1.92118,406.768,38.191,45.069,45.000,0.00,0.09,-272.77,-272.83,-18,527,-949,27.6,19.1,1.9,27.2,19.6,2.0,5.73,1.85,1.6,30.7
2016-06-08 01:33:00,0.0,1.90315,0.00046,402.113,0.048,0.9225,0.0135,140.001,45.000,31917.32727,1.92096,406.708,38.193,45.069,45.000,0.00,0.09,-272.78,-272.84,-19,527,-949,27.6,18.9,1.8,27.3,19.7,2.1,5.73,1.78,1.6,30.7
2016-06-08 01:34:00,0.0,1.90355,0.00086,402.115,0.062,0.9406,0.0093,140.002,45.000,31917.65477,1.92178,406.807,38.212,45.069,45.000,0.00,0.09,-272.77,-272.85,-18,527,-949,27.6,19.2,2.0,27.3,19.9,2.3,5.73,1.86,1.6,30.8
2016-06-08 01:35:00,0.0,1.90173,0.00055,402.074,0.061,0.8669,0.0194,140.003,45.000,31919.05390,1.91843,406.390,38.219,45.069,45.000,0.00,0.09,-272.76,-272.83,-19,527,-949,27.6,17.6,0.8,27.3,18.8,1.5,5.73,1.76,1.6,30.7
2016-06-08 01:36:00,0.0,1.90169,0.00057,402.066,0.057,0.8862,0.0204,140.003,45.000,31919.14185,1.91878,406.471,38.234,45.069,45.000,0.00,0.09,-272.77,-272.84,-19,527,-949,27.6,18.1,1.2,27.3,18.6,1.3,5.73,1.87,1.6,30.8
2016-06-08 01:37:00,0.0,1.90134,0.00059,402.073,0.069,0.8798,0.0113,139.999,45.000,31918.00434,1.91827,406.451,38.247,45.069,45.000,0.00,0.09,-272.78,-272.84,-18,527,-949,27.6,17.9,1.1,27.3,18.7,1.4,5.73,1.75,1.6,30.8
2016-06-08 01:38:00,0.0,1.90182,0.00049,402.073,0.048,0.8878,0.0192,140.000,45.000,31919.86246,1.91886,406.485,38.250,45.069,45.000,0.00,0.09,-272.77,-272.83,-20,527,-949,27.6,18.2,1.3,27.3,18.7,1.4,5.73,1.87,1.6,30.7
2016-06-08 01:39:00,0.0,1.90188,0.00099,402.068,0.080,0.8956,0.0256,139.999,45.000,31921.31343,1.91912,406.523,38.250,45.069,45.000,0.00,0.09,-272.77,-272.83,-18,527,-949,27.6,18.2,1.3,27.3,19.0,1.7,5.73,1.75,1.6,30.8
2016-06-08 01:40:00,0.0,1.90271,0.00055,402.125,0.042,0.9090,0.0126,140.003,45.000,31922.34955,1.92023,406.649,38.248,45.069,45.000,0.00,0.09,-272.78,-272.85,-20,527,-949,27.7,18.5,1.5,27.3,19.1,1.7,5.73,1.87,1.6,30.8
2016-06-08 01:41:00,0.0,1.90259,0.00071,402.118,0.079,0.9082,0.0118,139.997,45.000,31918.88780,1.92004,406.639,38.239,45.069,45.000,0.00,0.09,-272.78,-272.84,-18,527,-949,27.7,18.6,1.7,27.3,19.2,1.8,5.73,1.74,1.6,30.8
2016-06-08 01:42:00,0.0,1.90250,0.00093,402.075,0.069,0.9056,0.0413,140.003,45.000,31921.17214,1.92004,406.591,38.243,45.069,45.000,0.00,0.09,-272.76,-272.83,-19,527,-949,27.7,18.3,1.4,27.3,19.4,1.9,5.73,1.88,1.6,30.9
2016-06-08 01:43:00,0.0,1.90195,0.00049,402.064,0.057,0.8895,0.0261,140.001,45.000,31920.46114,1.91906,406.491,38.247,45.069,45.000,0.00,0.09,-272.78,-272.84,-19,527,-949,27.7,18.0,1.2,27.3,18.8,1.5,5.73,1.74,1.7,30.9
2016-06-08 01:44:00,0.0,1.90157,0.00047,402.066,0.051,0.8670,0.0129,140.000,45.000,31921.68317,1.91825,406.371,38.250,45.069,45.000,0.00,0.09,-272.78,-272.85,-19,527,-949,27.7,17.7,0.9,27.4,18.3,1.2,5.73,1.88,1.7,31.0
2016-06-08 01:45:00,0.0,1.90106,0.00071,402.013,0.060,0.8794,0.0297,140.002,45.000,31922.79446,1.91801,406.393,38.250,45.069,45.000,0.00,0.09,-272.77,-272.82,-19,528,-949,27.7,17.7,1.0,27.4,18.6,1.4,5.73,1.75,1.7,31.1
2016-06-08 01:46:00,0.0,1.90123,0.00044,402.062,0.044,0.8588,0.0128,140.000,45.000,31923.67101,1.91773,406.326,38.251,45.069,45.000,0.00,0.09,-272.77,-272.83,-18,527,-949,27.7,17.4,0.7,27.4,18.1,1.0,5.73,1.87,1.7,30.9